Flag for Germany Weather past 2 weeks in Erding, Bavaria, Germany

Now
48 °F

Clear.


Feels Like: 46 °F
Forecast: 41 / 62 °F
Wind: 6 mph from West

Location: Munich / Franz Josef Strauss Airport

Current Time: Apr 21, 2015 at 11:57:41 PM

Latest Report: Apr 21, 2015 at 11:20 PM


Visibility: 10 mi

Pressure: 30.33 "Hg

Humidity: 62%

Dew point: 36 °F

Location of ErdingLocation

Historic Weather in Erding — Graph

°F

Erding temperature yesterday

Maximum temperature yesterday: 61 °F (at 4:20 PM)
Minimum temperature yesterday: 30 °F (at 4:50 AM)
Average temperature yesterday: 47 °F

Past Weeks' High & Low Weather Summary

 TemperatureHumidityPressure
High73 °F (Apr 15, 4:50 PM)100% (Apr 7, 5:20 AM)30.60 "Hg (Apr 7, 5:20 AM)
Low23 °F (Apr 7, 7:20 AM)22% (Apr 15, 5:50 PM)29.86 "Hg (Apr 17, 1:50 PM)
Average50 °F64%30.25 "Hg
* Reported Apr 6 10:20 PM — Apr 21 10:20 PM, Erding, Weather by CustomWeather, © 2015

Note: Actual official high and low records may vary slightly from our data, if they occured in-between our weather recording intervals... More about our weather records

Advertising

Erding weather history for previous 24 hours

 ConditionsComfort  
Time TempWeatherWind HumidityBarometerVisibility
10:20 PM
Tue, Apr 21
59 °FClear.6 mph36%30.33 "Hg10 mi
9:50 PM61 °FClear.6 mph34%30.33 "Hg10 mi
9:20 PM61 °FClear.6 mph39%30.33 "Hg10 mi
8:50 PM59 °FSunny.6 mph42%30.30 "Hg10 mi
8:20 PM63 °FSunny.7 mph37%30.30 "Hg10 mi
7:50 PM64 °FSunny.6 mph32%30.30 "Hg10 mi
7:20 PM64 °FSunny.10 mph32%30.30 "Hg10 mi
6:50 PM66 °FPassing clouds.7 mph30%30.30 "HgN/A
6:20 PM66 °FPassing clouds.10 mph30%30.30 "HgN/A
5:50 PM66 °FSunny.10 mph32%30.30 "Hg10 mi
5:20 PM66 °FPassing clouds.10 mph35%30.30 "HgN/A
4:50 PM66 °FPassing clouds.12 mph32%30.30 "HgN/A
4:20 PM66 °FSunny.13 mph32%30.30 "Hg10 mi
3:50 PM66 °FPassing clouds.8 mph32%30.33 "HgN/A
3:20 PM64 °FPassing clouds.8 mph34%30.33 "HgN/A
2:50 PM64 °FPassing clouds.8 mph37%30.33 "HgN/A
2:20 PM63 °FPassing clouds.8 mph39%30.36 "HgN/A
1:50 PM63 °FPassing clouds.8 mph45%30.36 "HgN/A
1:20 PM61 °FPassing clouds.7 mph48%30.36 "HgN/A
12:50 PM61 °FPassing clouds.8 mph45%30.36 "HgN/A
12:20 PM59 °FPassing clouds.8 mph51%30.36 "HgN/A
11:50 AM59 °FPassing clouds.8 mph55%30.36 "HgN/A
11:20 AM57 °FPassing clouds.7 mph55%30.36 "HgN/A
10:50 AM55 °FPassing clouds.5 mph59%30.36 "HgN/A
10:20 AM54 °FSunny.3 mph58%30.36 "Hg10 mi
9:50 AM52 °FSunny.2 mph62%30.36 "Hg10 mi
9:20 AM50 °FCool.1 mph62%30.39 "HgN/A
8:50 AM48 °FPassing clouds.3 mph71%30.36 "HgN/A
8:20 AM46 °FPassing clouds.5 mph76%30.36 "HgN/A
7:50 AM43 °FSunny.5 mph81%30.36 "Hg10 mi
7:20 AM39 °FSunny.1 mph93%30.36 "Hg10 mi
6:50 AM37 °FClear.2 mph93%30.33 "Hg10 mi
6:20 AM36 °FClear.3 mph93%30.33 "Hg10 mi
5:20 AM37 °FClear.3 mph87%30.30 "Hg10 mi
4:50 AM34 °FClear.3 mph93%30.30 "Hg10 mi
4:20 AM36 °FClear.3 mph93%30.30 "Hg10 mi
3:50 AM36 °FClear.3 mph87%30.30 "Hg10 mi
3:20 AM36 °FClear.3 mph93%30.30 "Hg10 mi
2:50 AM36 °FClear.3 mph93%30.30 "Hg10 mi
2:20 AM37 °FClear.5 mph87%30.30 "Hg10 mi
1:50 AM37 °FClear.3 mph87%30.30 "Hg10 mi
1:20 AM39 °FClear.3 mph87%30.30 "Hg10 mi
12:50 AM39 °FClear.5 mph81%30.30 "Hg10 mi
12:20 AM41 °FClear.2 mph81%30.30 "Hg10 mi
11:50 PM
Mon, Apr 20
43 °FClear.2 mph71%30.30 "Hg10 mi
11:20 PM45 °FClear.2 mph71%30.27 "Hg10 mi
Weather by CustomWeather, © 2015

See weather overviewHow to use our weather pages